Zurück zum Katalog

INTELSAT 4-F5

AktivKommunikationGEO
NORAD 6052·PAYLOAD· XX

Gestartet Jun 13, 1972 von Cape Canaveral Space Force Station

Loading…

TLE

AktuellSource: Space-Track

Epoche: Sep 14, 2026, 10:32 UTC

1 06052U 72041A   26257.43932530 -.00000344  00000-0  00000-0 0  9990
2 06052   5.5162 285.9659 0004496 295.8610  63.9085  1.00125381 47555

Verfolge INTELSAT 4-F5 in Echtzeit mit AllMySat

Download on the App Store